| time (UTC) | temp F | wind direction | speed knots | gust knots | rain 1hr in | rain 24hr in | rain mn in | humidity % | barometer mb |
| 20260502163530 | 67 | 360 | 1.7 | 4.3 | 0.00 | 0.00 | 0.00 | 15 | 1010.5 |
| 20260502163048 | 66 | 360 | 1.7 | 4.3 | 0.00 | 0.00 | 0.00 | 16 | 1010.6 |
| 20260502162530 | 65 | 360 | 0.9 | 3.5 | 0.00 | 0.00 | 0.00 | 17 | 1010.6 |
| 20260502162030 | 64 | 360 | 0.0 | 2.6 | 0.00 | 0.00 | 0.00 | 17 | 1010.6 |
| 20260502161523 | 63 | 360 | 0.0 | 2.6 | 0.00 | 0.00 | 0.00 | 18 | 1010.6 |
| 20260502161027 | 62 | 360 | 0.0 | 3.5 | 0.00 | 0.00 | 0.00 | 18 | 1010.7 |
| 20260502160526 | 62 | 360 | 0.9 | 3.5 | 0.00 | 0.00 | 0.00 | 18 | 1010.7 |
| 20260502152014 | 58 | 67 | 0.0 | 0.9 | 0.00 | 0.00 | 0.00 | 20 | 1010.7 |
| 20260502151513 | 58 | 360 | 0.0 | 0.9 | 0.00 | 0.00 | 0.00 | 20 | 1010.6 |
| 20260502151013 | 57 | 83 | 0.0 | 0.9 | 0.00 | 0.00 | 0.00 | 21 | 1010.7 |
| 20260502150514 | 57 | 88 | 0.0 | 0.9 | 0.00 | 0.00 | 0.00 | 21 | 1010.7 |
| 20260502130505 | 52 | 360 | 0.0 | 1.7 | 0.00 | 0.00 | 0.00 | 19 | 1009.8 |
| 20260502123502 | 53 | 207 | 0.9 | 1.7 | 0.00 | 0.00 | 0.00 | 18 | 1009.7 |
| 20260502123002 | 53 | 207 | 0.0 | 2.6 | 0.00 | 0.00 | 0.00 | 18 | 1009.8 |
| 20260502122502 | 53 | 207 | 0.0 | 2.6 | 0.00 | 0.00 | 0.00 | 18 | 1009.8 |
| 20260502122002 | 52 | 217 | 1.7 | 2.6 | 0.00 | 0.00 | 0.00 | 18 | 1009.8 |
| 20260502121502 | 52 | 215 | 0.9 | 1.7 | 0.00 | 0.00 | 0.00 | 18 | 1009.7 |
| 20260502121002 | 52 | 360 | 0.0 | 1.7 | 0.00 | 0.00 | 0.00 | 18 | 1009.7 |
| 20260502120601 | 51 | 213 | 0.9 | 1.7 | 0.00 | 0.00 | 0.00 | 18 | 1009.7 |
| 20260502115500 | 51 | 196 | 0.9 | 2.6 | 0.00 | 0.00 | 0.00 | 18 | 1009.7 |
| 20260502115100 | 51 | 360 | 0.9 | 2.6 | 0.00 | 0.00 | 0.00 | 18 | 1009.7 |
| 20260502114604 | 51 | 193 | 0.9 | 2.6 | 0.00 | 0.00 | 0.00 | 18 | 1009.8 |
| 20260502114502 | 51 | 360 | 0.9 | 2.6 | 0.00 | 0.00 | 0.00 | 18 | 1009.8 |
| 20260502114100 | 51 | 360 | 0.0 | 2.6 | 0.00 | 0.00 | 0.00 | 18 | 1009.8 |
| 20260502113603 | 51 | 360 | 0.9 | 2.6 | 0.00 | 0.00 | 0.00 | 18 | 1009.7 |
| 20260502113100 | 51 | 360 | 0.9 | 1.7 | 0.00 | 0.00 | 0.00 | 18 | 1009.7 |
| 20260502112558 | 52 | 190 | 0.9 | 1.7 | 0.00 | 0.00 | 0.00 | 17 | 1009.8 |
| 20260502112058 | 52 | 360 | 0.0 | 1.7 | 0.00 | 0.00 | 0.00 | 17 | 1009.9 |
| 20260502111559 | 53 | 190 | 0.0 | 1.7 | 0.00 | 0.00 | 0.00 | 17 | 1010.0 |
| 20260502111100 | 52 | 187 | 0.0 | 2.6 | 0.00 | 0.00 | 0.00 | 17 | 1009.9 |
| 20260502110602 | 52 | 184 | 0.9 | 2.6 | 0.00 | 0.00 | 0.00 | 16 | 1010.0 |
| 20260502110104 | 52 | 184 | 0.0 | 0.9 | 0.00 | 0.00 | 0.00 | 18 | 1010.0 |
| 20260502105558 | 52 | 184 | 0.0 | 0.9 | 0.00 | 0.00 | 0.00 | 18 | 1009.9 |
| 20260502105059 | 52 | 360 | 0.0 | 0.9 | 0.00 | 0.00 | 0.00 | 19 | 1010.0 |
| 20260502104557 | 52 | 360 | 0.0 | 1.7 | 0.00 | 0.00 | 0.00 | 17 | 1010.0 |
| 20260502104056 | 53 | 360 | 0.0 | 1.7 | 0.00 | 0.00 | 0.00 | 18 | 1010.0 |
| 20260502103556 | 53 | 360 | 0.0 | 2.6 | 0.00 | 0.00 | 0.00 | 16 | 1010.0 |
| 20260502103056 | 53 | 202 | 0.9 | 2.6 | 0.00 | 0.00 | 0.00 | 16 | 1009.9 |
| 20260502102555 | 54 | 188 | 0.9 | 2.6 | 0.00 | 0.00 | 0.00 | 16 | 1009.9 |
| 20260502102055 | 53 | 187 | 0.0 | 4.3 | 0.00 | 0.00 | 0.00 | 17 | 1009.8 |
| 20260502101558 | 52 | 171 | 0.9 | 4.3 | 0.00 | 0.00 | 0.00 | 17 | 1009.8 |
| 20260502101057 | 52 | 213 | 0.0 | 1.7 | 0.00 | 0.00 | 0.00 | 17 | 1009.9 |
| 20260502100555 | 51 | 214 | 0.0 | 2.6 | 0.00 | 0.00 | 0.00 | 17 | 1009.9 |
| 20260502091049 | 52 | 225 | 0.9 | 1.7 | 0.00 | 0.00 | 0.00 | 18 | 1010.1 |
| 20260502090548 | 52 | 225 | 0.0 | 0.9 | 0.00 | 0.00 | 0.00 | 17 | 1010.2 |
| 20260502071033 | 57 | 360 | 0.0 | 1.7 | 0.00 | 0.00 | 0.00 | 16 | 1010.7 |
| 20260502070532 | 57 | 360 | 0.0 | 1.7 | 0.00 | 0.00 | 0.00 | 15 | 1010.6 |
| 20260502070045 | 58 | 210 | 0.0 | 1.7 | 0.00 | 0.00 | 0.00 | 15 | 1010.7 |
| 20260502065531 | 58 | 208 | 0.0 | 2.6 | 0.00 | 0.00 | 0.00 | 14 | 1010.7 |
| 20260502065030 | 58 | 360 | 0.9 | 2.6 | 0.00 | 0.00 | 0.00 | 14 | 1010.6 |
| 20260502064539 | 58 | 210 | 0.0 | 1.7 | 0.00 | 0.00 | 0.00 | 14 | 1010.5 |
| 20260502064030 | 58 | 360 | 0.0 | 1.7 | 0.00 | 0.00 | 0.00 | 14 | 1010.6 |
| 20260502063530 | 58 | 360 | 0.0 | 1.7 | 0.00 | 0.00 | 0.00 | 14 | 1010.7 |
| 20260502063030 | 58 | 360 | 0.0 | 1.7 | 0.00 | 0.00 | 0.00 | 14 | 1010.6 |
| 20260502062530 | 59 | 360 | 0.0 | 1.7 | 0.00 | 0.00 | 0.00 | 14 | 1010.7 |
| 20260502062031 | 59 | 360 | 0.9 | 2.6 | 0.00 | 0.00 | 0.00 | 14 | 1010.7 |
| 20260502061530 | 59 | 360 | 0.0 | 3.5 | 0.00 | 0.00 | 0.00 | 14 | 1010.7 |
| 20260502061028 | 59 | 360 | 1.7 | 3.5 | 0.00 | 0.00 | 0.00 | 14 | 1010.7 |
| 20260502060529 | 59 | 360 | 0.0 | 2.6 | 0.00 | 0.00 | 0.00 | 14 | 1010.8 |
| 20260502060030 | 59 | 360 | 0.9 | 2.6 | 0.00 | 0.00 | 0.00 | 13 | 1010.7 |
| 20260502055529 | 59 | 360 | 0.9 | 2.6 | 0.00 | 0.00 | 0.00 | 14 | 1010.7 |
| 20260502055029 | 59 | 360 | 0.9 | 2.6 | 0.00 | 0.00 | 0.00 | 13 | 1010.7 |
| 20260502054528 | 59 | 360 | 0.9 | 2.6 | 0.00 | 0.00 | 0.00 | 13 | 1010.7 |
| 20260502054027 | 59 | 360 | 1.7 | 2.6 | 0.00 | 0.00 | 0.00 | 13 | 1010.8 |
| 20260502053529 | 59 | 360 | 0.9 | 2.6 | 0.00 | 0.00 | 0.00 | 13 | 1010.8 |
| 20260502053027 | 59 | 360 | 0.9 | 2.6 | 0.00 | 0.00 | 0.00 | 13 | 1010.9 |
| 20260502052528 | 59 | 360 | 0.9 | 2.6 | 0.00 | 0.00 | 0.00 | 13 | 1010.9 |
| 20260502052028 | 59 | 360 | 0.9 | 2.6 | 0.00 | 0.00 | 0.00 | 13 | 1010.9 |
| 20260502051529 | 59 | 360 | 0.9 | 2.6 | 0.00 | 0.00 | 0.00 | 13 | 1010.9 |
| 20260502051027 | 60 | 360 | 0.9 | 3.5 | 0.00 | 0.00 | 0.00 | 13 | 1010.9 |
| 20260502050522 | 60 | 360 | 0.9 | 3.5 | 0.00 | 0.00 | 0.00 | 13 | 1010.9 |
| 20260502050021 | 60 | 360 | 1.7 | 3.5 | 0.00 | 0.00 | 0.00 | 13 | 1010.9 |
| 20260502045521 | 60 | 360 | 1.7 | 2.6 | 0.00 | 0.00 | 0.00 | 13 | 1010.9 |
| 20260502045024 | 60 | 360 | 0.9 | 3.5 | 0.00 | 0.00 | 0.00 | 12 | 1010.8 |
| 20260502044622 | 60 | 360 | 1.7 | 3.5 | 0.00 | 0.00 | 0.00 | 12 | 1010.7 |
| 20260502044020 | 60 | 360 | 0.9 | 2.6 | 0.00 | 0.00 | 0.00 | 12 | 1010.7 |
| 20260502043522 | 61 | 360 | 1.7 | 2.6 | 0.00 | 0.00 | 0.00 | 12 | 1010.7 |
| 20260502043020 | 61 | 360 | 0.9 | 2.6 | 0.00 | 0.00 | 0.00 | 12 | 1010.6 |
| 20260502042520 | 61 | 360 | 1.7 | 2.6 | 0.00 | 0.00 | 0.00 | 12 | 1010.6 |
| 20260502042023 | 61 | 360 | 0.9 | 1.7 | 0.00 | 0.00 | 0.00 | 12 | 1010.6 |
| 20260502041521 | 62 | 360 | 0.9 | 1.7 | 0.00 | 0.00 | 0.00 | 12 | 1010.6 |
| 20260502041022 | 62 | 360 | 0.9 | 1.7 | 0.00 | 0.00 | 0.00 | 12 | 1010.5 |
| 20260502040519 | 62 | 360 | 0.9 | 1.7 | 0.00 | 0.00 | 0.00 | 11 | 1010.5 |
| 20260502040019 | 62 | 360 | 0.0 | 1.7 | 0.00 | 0.00 | 0.00 | 11 | 1010.4 |
| 20260502035519 | 62 | 360 | 0.0 | 2.6 | 0.00 | 0.00 | 0.00 | 11 | 1010.3 |
| 20260502035019 | 62 | 360 | 0.9 | 2.6 | 0.00 | 0.00 | 0.00 | 11 | 1010.3 |
| 20260502034533 | 63 | 360 | 0.0 | 1.7 | 0.00 | 0.00 | 0.00 | 11 | 1010.2 |
| 20260502034022 | 63 | 360 | 0.0 | 0.9 | 0.00 | 0.00 | 0.00 | 11 | 1010.1 |
| 20260502033518 | 64 | 360 | 0.0 | 0.0 | 0.00 | 0.00 | 0.00 | 11 | 1010.1 |
| 20260502033017 | 65 | 360 | 0.0 | 0.0 | 0.00 | 0.00 | 0.00 | 11 | 1009.9 |
| 20260502032517 | 65 | 360 | 0.0 | 0.0 | 0.00 | 0.00 | 0.00 | 11 | 1009.9 |
| 20260502032018 | 65 | 360 | 0.0 | 0.9 | 0.00 | 0.00 | 0.00 | 11 | 1009.8 |
| 20260502031518 | 66 | 360 | 0.0 | 0.9 | 0.00 | 0.00 | 0.00 | 11 | 1009.8 |
| 20260502031017 | 67 | 360 | 0.0 | 0.9 | 0.00 | 0.00 | 0.00 | 11 | 1009.8 |
| 20260502030517 | 67 | 360 | 0.0 | 0.9 | 0.00 | 0.00 | 0.00 | 11 | 1009.8 |
| 20260502030017 | 67 | 360 | 0.0 | 1.7 | 0.00 | 0.00 | 0.00 | 10 | 1009.8 |
| 20260502025517 | 68 | 360 | 0.0 | 2.6 | 0.00 | 0.00 | 0.00 | 10 | 1009.8 |
| 20260502025016 | 68 | 360 | 0.0 | 3.5 | 0.00 | 0.00 | 0.00 | 10 | 1009.9 |
| 20260502024519 | 68 | 360 | 0.9 | 4.3 | 0.00 | 0.00 | 0.00 | 10 | 1009.9 |
| 20260502024016 | 69 | 360 | 0.9 | 4.3 | 0.00 | 0.00 | 0.00 | 10 | 1009.9 |
| 20260502023516 | 69 | 360 | 1.7 | 4.3 | 0.00 | 0.00 | 0.00 | 10 | 1009.8 |
| 20260502023016 | 69 | 360 | 0.9 | 3.5 | 0.00 | 0.00 | 0.00 | 10 | 1009.8 |
| 20260502022515 | 70 | 360 | 1.7 | 3.5 | 0.00 | 0.00 | 0.00 | 10 | 1009.8 |
| 20260502022015 | 70 | 360 | 0.9 | 4.3 | 0.00 | 0.00 | 0.00 | 11 | 1009.8 |
| 20260502021516 | 70 | 360 | 1.7 | 4.3 | 0.00 | 0.00 | 0.00 | 10 | 1009.8 |
| 20260502021015 | 70 | 360 | 1.7 | 4.3 | 0.00 | 0.00 | 0.00 | 10 | 1009.8 |
| 20260502020515 | 71 | 360 | 0.9 | 7.0 | 0.00 | 0.00 | 0.00 | 10 | 1009.8 |
| 20260502020014 | 71 | 360 | 1.7 | 7.0 | 0.00 | 0.00 | 0.00 | 10 | 1009.8 |
| 20260502015514 | 71 | 360 | 2.6 | 7.0 | 0.00 | 0.00 | 0.00 | 9 | 1009.8 |
| 20260502015013 | 72 | 360 | 3.5 | 7.8 | 0.00 | 0.00 | 0.00 | 9 | 1009.8 |
| 20260502014530 | 73 | 360 | 3.5 | 8.7 | 0.00 | 0.00 | 0.00 | 9 | 1009.8 |
| 20260502014014 | 73 | 360 | 1.7 | 7.0 | 0.00 | 0.00 | 0.00 | 9 | 1009.9 |
| 20260502013513 | 74 | 360 | 0.9 | 5.2 | 0.00 | 0.00 | 0.00 | 9 | 1009.9 |
| 20260502013012 | 74 | 360 | 2.6 | 7.0 | 0.00 | 0.00 | 0.00 | 9 | 1009.9 |
| 20260502012512 | 75 | 360 | 3.5 | 7.0 | 0.00 | 0.00 | 0.00 | 9 | 1010.0 |
| 20260502012012 | 76 | 360 | 2.6 | 7.0 | 0.00 | 0.00 | 0.00 | 9 | 1010.0 |
| 20260502011512 | 76 | 360 | 0.9 | 4.3 | 0.00 | 0.00 | 0.00 | 8 | 1009.9 |
| 20260502011011 | 76 | 360 | 1.7 | 5.2 | 0.00 | 0.00 | 0.00 | 8 | 1010.1 |
| 20260502010510 | 76 | 360 | 1.7 | 5.2 | 0.00 | 0.00 | 0.00 | 8 | 1010.1 |
| 20260502010010 | 77 | 360 | 1.7 | 7.0 | 0.00 | 0.00 | 0.00 | 8 | 1010.1 |
| 20260502005509 | 77 | 360 | 0.9 | 7.0 | 0.00 | 0.00 | 0.00 | 8 | 1010.1 |
| 20260502005010 | 76 | 360 | 0.0 | 10.4 | 0.00 | 0.00 | 0.00 | 8 | 1010.1 |
| 20260502004509 | 76 | 360 | 2.6 | 10.4 | 0.00 | 0.00 | 0.00 | 8 | 1010.2 |
| 20260502004009 | 77 | 360 | 1.7 | 9.6 | 0.00 | 0.00 | 0.00 | 8 | 1010.2 |
| 20260502003507 | 77 | 360 | 4.3 | 9.6 | 0.00 | 0.00 | 0.00 | 8 | 1010.2 |
| 20260502003011 | 77 | 360 | 3.5 | 8.7 | 0.00 | 0.00 | 0.00 | 8 | 1010.2 |
| 20260502002508 | 77 | 360 | 3.5 | 8.7 | 0.00 | 0.00 | 0.00 | 8 | 1010.2 |
| 20260502002008 | 77 | 360 | 5.2 | 8.7 | 0.00 | 0.00 | 0.00 | 8 | 1010.2 |
| 20260502001515 | 77 | 360 | 3.5 | 8.7 | 0.00 | 0.00 | 0.00 | 8 | 1010.3 |
| 20260502001006 | 77 | 360 | 2.6 | 10.4 | 0.00 | 0.00 | 0.00 | 8 | 1010.3 |
| 20260502000506 | 77 | 360 | 3.5 | 13.0 | 0.00 | 0.00 | 0.00 | 8 | 1010.4 |
| 20260502000017 | 79 | 360 | 5.2 | 13.0 | 0.00 | 0.00 | 0.00 | 8 | 1010.4 |
| 20260501235505 | 79 | 360 | 2.6 | 10.4 | 0.00 | 0.00 | 0.00 | 8 | 1010.4 |
| 20260501235004 | 80 | 360 | 3.5 | 9.6 | 0.00 | 0.00 | 0.00 | 8 | 1010.4 |
| 20260501234503 | 79 | 360 | 1.7 | 7.0 | 0.00 | 0.00 | 0.00 | 8 | 1010.5 |
| 20260501234003 | 79 | 360 | 2.6 | 7.0 | 0.00 | 0.00 | 0.00 | 8 | 1010.5 |
| 20260501233503 | 79 | 360 | 2.6 | 8.7 | 0.00 | 0.00 | 0.00 | 8 | 1010.5 |
| 20260501233003 | 79 | 360 | 0.9 | 10.4 | 0.00 | 0.00 | 0.00 | 8 | 1010.7 |
| 20260501232502 | 79 | 360 | 3.5 | 10.4 | 0.00 | 0.00 | 0.00 | 8 | 1010.7 |
| 20260501232004 | 79 | 360 | 5.2 | 10.4 | 0.00 | 0.00 | 0.00 | 8 | 1010.7 |
| 20260501231504 | 81 | 360 | 2.6 | 7.0 | 0.00 | 0.00 | 0.00 | 8 | 1010.7 |
| 20260501231100 | 80 | 360 | 1.7 | 7.0 | 0.00 | 0.00 | 0.00 | 8 | 1010.8 |
| 20260501230600 | 79 | 360 | 0.9 | 7.8 | 0.00 | 0.00 | 0.00 | 8 | 1010.8 |
| 20260501230105 | 79 | 360 | 2.6 | 9.6 | 0.00 | 0.00 | 0.00 | 8 | 1011.0 |
| 20260501225558 | 79 | 360 | 5.2 | 9.6 | 0.00 | 0.00 | 0.00 | 8 | 1011.0 |
| 20260501225057 | 78 | 360 | 1.7 | 8.7 | 0.00 | 0.00 | 0.00 | 8 | 1011.1 |
| 20260501224558 | 79 | 360 | 5.2 | 8.7 | 0.00 | 0.00 | 0.00 | 8 | 1011.2 |
| 20260501224055 | 79 | 360 | 1.7 | 7.0 | 0.00 | 0.00 | 0.00 | 9 | 1011.3 |
| 20260501223555 | 78 | 360 | 3.5 | 7.0 | 0.00 | 0.00 | 0.00 | 9 | 1011.4 |
| 20260501223100 | 78 | 360 | 0.9 | 7.0 | 0.00 | 0.00 | 0.00 | 9 | 1011.5 |
| 20260501222553 | 77 | 360 | 2.6 | 7.0 | 0.00 | 0.00 | 0.00 | 9 | 1011.7 |
| 20260501222052 | 77 | 360 | 1.7 | 5.2 | 0.00 | 0.00 | 0.00 | 9 | 1011.8 |
| 20260501221558 | 79 | 360 | 0.9 | 5.2 | 0.00 | 0.00 | 0.00 | 9 | 1011.9 |
| 20260501221051 | 80 | 360 | 0.9 | 5.2 | 0.00 | 0.00 | 0.00 | 8 | 1012.0 |
| 20260501220549 | 79 | 360 | 1.7 | 5.2 | 0.00 | 0.00 | 0.00 | 9 | 1012.0 |
| 20260501220055 | 78 | 360 | 2.6 | 8.7 | 0.00 | 0.00 | 0.00 | 9 | 1012.1 |
| 20260501215547 | 79 | 360 | 4.3 | 9.6 | 0.00 | 0.00 | 0.00 | 9 | 1012.2 |
| 20260501215046 | 79 | 360 | 3.5 | 12.2 | 0.00 | 0.00 | 0.00 | 10 | 1012.4 |
| 20260501214547 | 78 | 360 | 4.3 | 12.2 | 0.00 | 0.00 | 0.00 | 10 | 1012.3 |
| 20260501214047 | 78 | 360 | 2.6 | 9.6 | 0.00 | 0.00 | 0.00 | 10 | 1012.3 |
| 20260501213545 | 78 | 360 | 3.5 | 9.6 | 0.00 | 0.00 | 0.00 | 10 | 1012.5 |
| 20260501213046 | 77 | 360 | 2.6 | 9.6 | 0.00 | 0.00 | 0.00 | 10 | 1012.5 |
| 20260501212544 | 78 | 360 | 3.5 | 9.6 | 0.00 | 0.00 | 0.00 | 10 | 1012.7 |
| 20260501212044 | 77 | 360 | 5.2 | 9.6 | 0.00 | 0.00 | 0.00 | 10 | 1012.7 |
| 20260501211545 | 75 | 360 | 4.3 | 8.7 | 0.00 | 0.00 | 0.00 | 10 | 1012.7 |
| 20260501211043 | 73 | 360 | 3.5 | 9.6 | 0.00 | 0.00 | 0.00 | 11 | 1012.8 |
| 20260501210544 | 72 | 360 | 3.5 | 9.6 | 0.00 | 0.00 | 0.00 | 11 | 1012.9 |
| 20260501210043 | 75 | 360 | 3.5 | 7.0 | 0.00 | 0.00 | 0.00 | 11 | 1012.9 |
| 20260501205543 | 77 | 360 | 0.9 | 7.8 | 0.00 | 0.00 | 0.00 | 10 | 1012.9 |
| 20260501205041 | 78 | 360 | 3.5 | 7.8 | 0.00 | 0.00 | 0.00 | 10 | 1013.0 |
| 20260501204542 | 78 | 360 | 1.7 | 11.3 | 0.00 | 0.00 | 0.00 | 10 | 1013.1 |
| 20260501204044 | 78 | 360 | 5.2 | 12.2 | 0.00 | 0.00 | 0.00 | 10 | 1013.2 |
| 20260501203541 | 78 | 360 | 6.1 | 12.2 | 0.00 | 0.00 | 0.00 | 10 | 1013.1 |
| 20260501203039 | 77 | 360 | 3.5 | 11.3 | 0.00 | 0.00 | 0.00 | 11 | 1013.2 |
| 20260501202542 | 77 | 360 | 3.5 | 12.2 | 0.00 | 0.00 | 0.00 | 11 | 1013.3 |
| 20260501202039 | 77 | 360 | 5.2 | 12.2 | 0.00 | 0.00 | 0.00 | 11 | 1013.3 |
| 20260501201551 | 76 | 360 | 4.3 | 8.7 | 0.00 | 0.00 | 0.00 | 11 | 1013.4 |
| 20260501201038 | 74 | 360 | 1.7 | 4.3 | 0.00 | 0.00 | 0.00 | 12 | 1013.4 |
| 20260501200537 | 75 | 360 | 2.6 | 4.3 | 0.00 | 0.00 | 0.00 | 12 | 1013.4 |
| 20260501200036 | 76 | 360 | 0.0 | 9.6 | 0.00 | 0.00 | 0.00 | 11 | 1013.6 |
| 20260501195537 | 75 | 360 | 4.3 | 9.6 | 0.00 | 0.00 | 0.00 | 12 | 1013.7 |
| 20260501195035 | 73 | 360 | 3.5 | 8.7 | 0.00 | 0.00 | 0.00 | 13 | 1013.8 |
| 20260501194540 | 72 | 360 | 2.6 | 7.0 | 0.00 | 0.00 | 0.00 | 13 | 1013.8 |
| 20260501194035 | 74 | 360 | 0.9 | 5.2 | 0.00 | 0.00 | 0.00 | 12 | 1014.0 |
| 20260501193536 | 74 | 360 | 0.0 | 7.8 | 0.00 | 0.00 | 0.00 | 12 | 1013.9 |
| 20260501193036 | 74 | 360 | 2.6 | 9.6 | 0.00 | 0.00 | 0.00 | 12 | 1014.0 |
| 20260501192534 | 75 | 360 | 4.3 | 9.6 | 0.00 | 0.00 | 0.00 | 12 | 1014.1 |
| 20260501192035 | 74 | 360 | 4.3 | 9.6 | 0.00 | 0.00 | 0.00 | 13 | 1014.1 |
| 20260501191534 | 72 | 360 | 4.3 | 9.6 | 0.00 | 0.00 | 0.00 | 14 | 1014.2 |
| 20260501191034 | 73 | 360 | 4.3 | 7.0 | 0.00 | 0.00 | 0.00 | 13 | 1014.2 |
| 20260501190534 | 75 | 360 | 1.7 | 7.8 | 0.00 | 0.00 | 0.00 | 12 | 1014.4 |
| 20260501190033 | 75 | 360 | 2.6 | 7.8 | 0.00 | 0.00 | 0.00 | 13 | 1014.4 |
| 20260501185532 | 75 | 360 | 3.5 | 7.8 | 0.00 | 0.00 | 0.00 | 12 | 1014.6 |
| 20260501185031 | 75 | 360 | 2.6 | 8.7 | 0.00 | 0.00 | 0.00 | 13 | 1014.6 |
| 20260501184531 | 75 | 360 | 2.6 | 8.7 | 0.00 | 0.00 | 0.00 | 13 | 1014.6 |
| 20260501184031 | 74 | 360 | 0.9 | 7.8 | 0.00 | 0.00 | 0.00 | 14 | 1014.7 |
| 20260501183534 | 74 | 360 | 0.0 | 7.0 | 0.00 | 0.00 | 0.00 | 13 | 1014.7 |
| 20260501183042 | 73 | 360 | 1.7 | 7.0 | 0.00 | 0.00 | 0.00 | 13 | 1014.8 |
| 20260501182529 | 73 | 360 | 1.7 | 5.2 | 0.00 | 0.00 | 0.00 | 13 | 1014.8 |
| 20260501182032 | 73 | 360 | 1.7 | 5.2 | 0.00 | 0.00 | 0.00 | 13 | 1014.8 |
| 20260501181535 | 73 | 360 | 2.6 | 7.0 | 0.00 | 0.00 | 0.00 | 14 | 1014.9 |
| 20260501181026 | 72 | 360 | 0.9 | 7.0 | 0.00 | 0.00 | 0.00 | 14 | 1014.9 |
| 20260501180528 | 72 | 65 | 2.6 | 8.7 | 0.00 | 0.00 | 0.00 | 14 | 1014.9 |
| 20260501180031 | 72 | 32 | 1.7 | 8.7 | 0.00 | 0.00 | 0.00 | 14 | 1014.9 |
| 20260501175524 | 72 | 43 | 4.3 | 7.8 | 0.00 | 0.00 | 0.00 | 14 | 1015.0 |
| 20260501175023 | 71 | 50 | 1.7 | 5.2 | 0.00 | 0.00 | 0.00 | 14 | 1015.1 |
| 20260501174533 | 72 | 59 | 0.9 | 5.2 | 0.00 | 0.00 | 0.00 | 14 | 1015.1 |
| 20260501174022 | 71 | 360 | 0.9 | 5.2 | 0.00 | 0.00 | 0.00 | 15 | 1015.1 |
| 20260501173520 | 70 | 360 | 0.9 | 7.0 | 0.00 | 0.00 | 0.00 | 15 | 1015.1 |
| 20260501173019 | 69 | 360 | 2.6 | 7.0 | 0.00 | 0.00 | 0.00 | 15 | 1015.1 |
| 20260501172519 | 68 | 360 | 1.7 | 7.0 | 0.00 | 0.00 | 0.00 | 16 | 1015.2 |
| 20260501172022 | 68 | 360 | 2.6 | 7.8 | 0.00 | 0.00 | 0.00 | 16 | 1015.2 |
| 20260501171519 | 68 | 360 | 1.7 | 9.6 | 0.00 | 0.00 | 0.00 | 16 | 1015.3 |
| 20260501171018 | 68 | 360 | 3.5 | 9.6 | 0.00 | 0.00 | 0.00 | 16 | 1015.3 |
| 20260501170517 | 68 | 360 | 3.5 | 7.0 | 0.00 | 0.00 | 0.00 | 16 | 1015.3 |
| 20260501170017 | 68 | 360 | 2.6 | 7.0 | 0.00 | 0.00 | 0.00 | 16 | 1015.4 |
| 20260501165515 | 68 | 360 | 3.5 | 7.8 | 0.00 | 0.00 | 0.00 | 16 | 1015.5 |
| 20260501165014 | 67 | 360 | 2.6 | 7.8 | 0.00 | 0.00 | 0.00 | 16 | 1015.6 |
| 20260501164514 | 66 | 360 | 3.5 | 7.0 | 0.00 | 0.00 | 0.00 | 17 | 1015.5 |
| 20260501164017 | 65 | 360 | 0.0 | 5.2 | 0.00 | 0.00 | 0.00 | 18 | 1015.6 |